Epoch,demod_status_bits,ebno,lock_status,signal_level,viterbi_ber
1665175452,C;S;V;F,13.5,0x00c000,-38.0,0.00e-0
1665175453,C;S;V;F,13.1,0x00c000,-38.5,1.51e-7
1665175454,C;S;V;F,12.9,0x00c000,-38.1,6.06e-7
1665175455,C;S;V;F,13.0,0x00c000,-38.3,3.03e-7
1665175456,,12.9,0x00c000,-38.5,
1665175457,C;S;V;F,12.9,0x00c000,-38.3,3.03e-7
1665175458,C;S;V;F,12.8,0x00c000,-38.5,3.03e-7
1665175459,C;S;V;F,13.0,0x00c000,-38.5,3.03e-7
1665175460,C;S;V;F,13.1,0x00c000,-38.0,3.03e-7
1665175461,C;S;V;F,,0x00c000,-38.3,4.54e-7
1665175462,C;S;V;F,13.1,0x00c000,,1.51e-7
1665175463,C;S;V;F,12.7,0x00c000,-38.8,3.03e-7
1665175464,C;S;V;F,13.0,0x00c000,-38.4,4.54e-7
1665175465,C;S;V;F,12.9,0x00c000,-38.4,3.03e-7
1665175466,C;S;V;F,12.6,0x00c000,-38.7,7.57e-7
1665175467,C;S;V;F,12.6,0x00c000,-38.7,9.09e-7
1665175468,C;S;V;F,12.7,0x00c000,-38.5,9.09e-7
1665175469,C;S;V;F,12.9,0x00c000,-38.5,9.09e-7
1665175470,C;S;V;F,12.7,0x00c000,-38.6,6.06e-7
1665175471,C;S;V;F,12.9,0x00c000,-38.6,4.54e-7
1665175472,C;S;V;F,12.5,0x00c000,-38.8,1.05e-6
1665175473,C;S;V;F,12.5,0x00c000,-39.0,
1665175474,,12.4,0x00c000,-38.8,1.36e-6
1665175475,C;S;V;F,12.7,0x00c000,-38.5,1.05e-6
1665175476,C;S;V;F,12.9,0x00c000,-38.4,1.21e-6
1665175477,C;S;V;F,,0x00c000,-38.7,4.54e-7
1665175478,C;S;V;F,12.6,0x00c000,-39.0,3.03e-7
1665175479,C;S;V;F,12.4,0x00c000,,1.21e-6
1665175480,C;S;V;F,12.9,0x00c000,-38.4,1.05e-6
1665175481,C;S;V;F,12.9,0x00c000,-38.9,3.03e-7
1665175482,C;S;V;F,12.8,0x00c000,-38.9,6.06e-7
1665175483,C;S;V;F,13.0,0x00c000,-38.4,9.09e-7
1665175484,C;S;V;F,13.0,0x00c000,-38.4,1.51e-7
1665175485,C;S;V;F,13.3,0x00c000,-38.3,0.00e-0
1665175486,C;S;V;F,13.4,0x00c000,-38.0,0.00e-0
1665175487,C;S;V;F,13.4,0x00c000,-38.2,0.00e-0
1665175488,C;S;V;F,13.1,0x00c000,-38.2,
1665175489,,13.1,0x00c000,-38.4,0.00e-0
1665175490,C;S;V;F,12.8,0x00c000,-38.6,0.00e-0
1665175491,C;S;V;F,13.0,0x00c000,-38.4,3.03e-7
1665175492,C;S;V;F,,0x00c000,-38.4,3.03e-7
1665175493,C;S;V;F,13.0,0x00c000,-38.3,4.54e-7
1665175494,C;S;V;F,13.1,0x00c000,,3.03e-7
1665175495,C;S;V;F,13.0,0x00c000,-38.6,1.51e-7
1665175497,C;S;V;F,13.0,0x00c000,-38.5,
1665175498,,13.4,0x00c000,-38.4,3.03e-7
1665175499,C;S;V;F,13.1,0x00c000,-38.4,1.51e-7
1665175500,C;S;V;F,13.3,0x00c000,-38.0,0.00e-0
1665175501,C;S;V;F,13.1,0x00c000,-38.2,0.00e-0
1665175502,C;S;V;F,13.0,0x00c000,-38.1,0.00e-0
1665175503,C;S;V;F,,0x00c000,-38.4,0.00e-0
1665175504,C;S;V;F,12.9,0x00c000,-38.4,0.00e-0
1665175505,C;S;V;F,13.2,0x00c000,-38.3,1.51e-7
1665175506,C;S;V;F,13.1,0x00c000,,1.51e-7
1665175507,C;S;V;F,13.1,0x00c000,-38.4,1.51e-7
1665175508,C;S;V;F,13.0,0x00c000,-38.5,0.00e-0
1665175509,C;S;V;F,12.7,0x00c000,-38.6,4.54e-7
1665175510,C;S;V;F,12.6,0x00c000,-38.8,1.21e-6
1665175511,C;S;V;F,12.7,0x00c000,-38.8,9.09e-7
1665175512,C;S;V;F,12.8,0x00c000,-38.4,4.54e-7
1665175513,C;S;V;F,13.1,0x00c000,-38.7,1.51e-7
1665175514,C;S;V;F,13.1,0x00c000,-38.4,1.51e-7
1665175515,C;S;V;F,12.6,0x00c000,-38.8,
1665175516,,,0x00c000,-38.5,3.03e-7
1665175517,C;S;V;F,12.8,0x00c000,-38.8,7.57e-7
1665175518,C;S;V;F,12.5,0x00c000,-38.8,9.09e-7
1665175519,C;S;V;F,12.8,0x00c000,,9.09e-7
1665175520,C;S;V;F,12.7,0x00c000,-38.7,4.54e-7
1665175521,C;S;V;F,12.9,0x00c000,-38.7,0.00e-0
1665175522,C;S;V;F,13.1,0x00c000,-38.7,1.51e-7
1665175523,C;S;V;F,12.8,0x00c000,-38.7,3.03e-7
1665175524,C;S;V;F,12.6,0x00c000,-38.7,9.09e-7
1665175525,C;S;V;F,12.7,0x00c000,-38.9,1.05e-6
1665175526,C;S;V;F,12.4,0x00c000,-39.1,1.36e-6
1665175527,C;S;V;F,12.6,0x00c000,-38.9,1.36e-6
1665175528,C;S;V;F,12.7,0x00c000,-38.8,7.57e-7
1665175529,C;S;V;F,12.7,0x00c000,-38.7,
1665175530,,12.7,0x00c000,-38.8,7.57e-7
1665175531,C;S;V;F,12.7,0x00c000,-38.8,6.06e-7
1665175532,C;S;V;F,12.9,0x00c000,-38.9,6.06e-7
1665175533,C;S;V;F,12.2,0x00c000,-38.9,6.06e-7
1665175534,C;S;V;F,,0x00c000,-39.0,1.51e-6
1665175535,C;S;V;F,12.4,0x00c000,-38.9,1.36e-6
1665175536,C;S;V;F,12.4,0x00c000,-38.9,1.21e-6
1665175537,C;S;V;F,12.7,0x00c000,-38.8,9.09e-7
1665175538,C;S;V;F,12.6,0x00c000,,9.09e-7
1665175539,C;S;V;F,12.9,0x00c000,-38.7,6.06e-7
1665175540,C;S;V;F,12.7,0x00c000,-38.8,4.54e-7
1665175541,C;S;V;F,12.5,0x00c000,-38.8,9.09e-7
1665175542,C;S;V;F,13.0,0x00c000,-38.9,9.09e-7
1665175543,C;S;V;F,12.4,0x00c000,-39.0,1.36e-6
1665175544,C;S;V;F,12.5,0x00c000,-39.1,1.36e-6
1665175545,C;S;V;F,12.7,0x00c000,-38.7,9.09e-7
1665175546,C;S;V;F,12.8,0x00c000,-38.7,3.03e-7
1665175547,C;S;V;F,12.6,0x00c000,-38.9,3.03e-7
1665175548,C;S;V;F,12.4,0x00c000,-38.8,6.06e-7
1665175549,C;S;V;F,12.7,0x00c000,-38.8,6.06e-7
1665175550,C;S;V;F,12.7,0x00c000,-38.8,
1665175551,,12.6,0x00c000,-38.9,6.06e-7
1665175552,C;S;V;F,12.9,0x00c000,-38.9,6.06e-7
1665175553,C;S;V;F,12.9,0x00c000,-38.8,9.09e-7
1665175554,C;S;V;F,13.1,0x00c000,-38.8,1.05e-6
1665175555,C;S;V;F,,0x00c000,-38.8,4.54e-7
1665175556,C;S;V;F,13.0,0x00c000,-38.8,0.00e-0
1665175557,C;S;V;F,12.7,0x00c000,,3.03e-7
1665175562,C;S;V;F,13.0,0x00c000,-38.7,3.03e-7
1665175563,C;S;V;F,12.8,0x00c000,-38.7,3.03e-7
1665175564,C;S;V;F,12.7,0x00c000,-38.6,1.51e-7
1665175565,,12.8,0x00c000,-38.7,
1665175566,C;S;V;F,12.7,0x00c000,-38.7,3.03e-7
1665175567,C;S;V;F,12.9,0x00c000,-39.0,3.03e-7
1665175568,C;S;V;F,12.7,0x00c000,-38.8,3.03e-7
1665175569,C;S;V;F,12.5,0x00c000,-39.1,4.54e-7
1665175570,C;S;V;F,12.4,0x00c000,-39.5,4.54e-7
1665175571,C;S;V;F,,0x00c000,-39.2,1.51e-6
1665175572,C;S;V;F,12.3,0x00c000,,1.96e-6
1665175573,C;S;V;F,12.4,0x00c000,-39.1,1.51e-6
1665175574,C;S;V;F,12.4,0x00c000,-39.2,1.36e-6
1665175575,C;S;V;F,12.8,0x00c000,-39.1,1.66e-6
1665175576,C;S;V;F,12.6,0x00c000,-39.2,1.36e-6
1665175577,C;S;V;F,12.6,0x00c000,-38.9,1.21e-6
1665175578,C;S;V;F,12.5,0x00c000,-39.0,1.36e-6
1665175579,C;S;V;F,12.3,0x00c000,-39.1,1.81e-6
1665175580,C;S;V;F,12.3,0x00c000,-39.1,1.05e-6
1665175581,C;S;V;F,12.3,0x00c000,-39.4,
1665175582,,12.7,0x00c000,-39.1,1.51e-6
1665175583,C;S;V;F,12.7,0x00c000,-38.8,1.66e-6
1665175584,C;S;V;F,,0x00c000,-39.2,9.09e-7
1665175585,C;S;V;F,12.4,0x00c000,-39.5,1.51e-6
1665175586,C;S;V;F,12.1,0x00c000,,2.42e-6
1665175587,C;S;V;F,11.9,0x00c000,-39.6,5.14e-6
1665175588,C;S;V;F,11.4,0x00c000,-39.9,7.56e-6
1665175589,C;S;V;F,11.6,0x00c000,-40.0,9.99e-6
1665175590,C;S;V;F,11.7,0x00c000,-39.8,9.22e-6
1665175591,C;S;V;F,11.6,0x00c000,-39.9,9.52e-6
1665175592,C;S;V;F,11.5,0x00c000,-40.1,1.33e-5
1665175593,C;S;V;F,11.5,0x00c000,-40.1,1.18e-5
1665175594,C;S;V;F,11.6,0x00c000,-39.9,
1665175595,C;S;V;F,11.6,0x00c000,-39.9,9.52e-6
1665175596,,11.6,0x00c000,-39.8,8.01e-6
1665175597,C;S;V;F,12.0,0x00c000,-39.7,8.92e-6
1665175598,C;S;V;F,12.2,0x00c000,-39.3,5.74e-6
1665175599,C;S;V;F,,0x00c000,-39.5,3.93e-6
1665175600,C;S;V;F,12.1,0x00c000,,2.11e-6
1665175601,C;S;V;F,12.2,0x00c000,-39.3,1.81e-6
1665175602,C;S;V;F,12.6,0x00c000,-39.0,1.51e-6
1665175603,C;S;V;F,12.5,0x00c000,-39.4,1.36e-6
1665175604,C;S;V;F,12.5,0x00c000,-39.2,1.81e-6
1665175605,C;S;V;F,12.3,0x00c000,-39.1,1.81e-6
1665175606,C;S;V;F,12.7,0x00c000,-39.0,1.36e-6
1665175607,C;S;V;F,12.5,0x00c000,-39.3,
1665175608,C;S;V;F,12.3,0x00c000,-39.1,4.54e-7
1665175609,,12.5,0x00c000,-39.1,1.66e-6
1665175610,C;S;V;F,12.5,0x00c000,-39.2,1.51e-6
1665175611,C;S;V;F,12.6,0x00c000,-39.1,1.36e-6
1665175612,C;S;V;F,12.5,0x00c000,-39.0,1.21e-6
1665175613,C;S;V;F,12.8,0x00c000,-38.8,9.09e-7
1665175614,C;S;V;F,,0x00c000,-38.8,9.09e-7
1665175615,C;S;V;F,12.8,0x00c000,-38.7,9.09e-7
1665175616,C;S;V;F,12.9,0x00c000,,7.57e-7
1665175617,C;S;V;F,13.2,0x00c000,-38.5,3.03e-7
1665175618,C;S;V;F,13.2,0x00c000,-38.4,0.00e-0
1665175619,C;S;V;F,13.5,0x00c000,-38.3,0.00e-0
1665175620,C;S;V;F,13.5,0x00c000,-38.2,0.00e-0
1665175621,C;S;V;F,13.4,0x00c000,-38.0,0.00e-0
1665175622,C;S;V;F,13.5,0x00c000,-38.0,0.00e-0
1665175623,C;S;V;F,13.4,0x00c000,-38.1,0.00e-0
1665175626,C;S;V;F,13.7,0x00c000,-38.1,0.00e-0
1665175627,C;S;V;F,13.4,0x00c000,-38.2,0.00e-0
1665175628,C;S;V;F,13.5,0x00c000,-38.0,0.00e-0
1665175629,C;S;V;F,13.5,0x00c000,-38.1,0.00e-0
1665175630,C;S;V;F,13.5,0x00c000,-38.1,0.00e-0
1665175631,C;S;V;F,13.4,0x00c000,-38.4,0.00e-0
1665175632,C;S;V;F,13.4,0x00c000,-38.0,0.00e-0
1665175633,,13.4,0x00c000,-38.3,
1665175634,C;S;V;F,13.4,0x00c000,-38.2,0.00e-0
1665175635,C;S;V;F,13.8,0x00c000,-37.9,0.00e-0
1665175636,C;S;V;F,13.5,0x00c000,-37.9,0.00e-0
1665175637,C;S;V;F,13.6,0x00c000,-37.9,0.00e-0
1665175638,C;S;V;F,,0x00c000,-38.0,0.00e-0
1665175639,C;S;V;F,13.5,0x00c000,,0.00e-0
1665175640,C;S;V;F,13.5,0x00c000,-38.0,0.00e-0
1665175641,C;S;V;F,13.5,0x00c000,-37.9,0.00e-0
1665175642,C;S;V;F,13.5,0x00c000,-38.2,0.00e-0
1665175643,C;S;V;F,13.3,0x00c000,-38.1,0.00e-0
1665175644,C;S;V;F,13.3,0x00c000,-38.2,0.00e-0
1665175645,C;S;V;F,13.4,0x00c000,-37.9,0.00e-0
1665175646,C;S;V;F,14.2,0x00c000,-37.2,0.00e-0
1665175647,C;S;V;F,14.0,0x00c000,-37.6,
1665175648,,14.0,0x00c000,-37.3,0.00e-0
1665175649,C;S;V;F,13.8,0x00c000,-37.6,0.00e-0
1665175650,C;S;V;F,14.1,0x00c000,-37.4,0.00e-0
1665175651,C;S;V;F,13.7,0x00c000,-37.7,0.00e-0
1665175652,C;S;V;F,,0x00c000,-37.8,0.00e-0
1665175653,C;S;V;F,13.9,0x00c000,,0.00e-0
1665175654,C;S;V;F,13.8,0x00c000,-37.5,0.00e-0
1665175655,C;S;V;F,14.0,0x00c000,-37.5,0.00e-0
1665175656,C;S;V;F,14.0,0x00c000,-37.7,0.00e-0
1665175657,C;S;V;F,13.6,0x00c000,-37.8,0.00e-0
1665175658,C;S;V;F,13.9,0x00c000,-37.8,0.00e-0
1665175659,C;S;V;F,13.5,0x00c000,-38.0,0.00e-0
1665175660,C;S;V;F,13.7,0x00c000,-37.9,
1665175661,,13.5,0x00c000,-37.9,0.00e-0
1665175662,C;S;V;F,13.7,0x00c000,-38.2,0.00e-0
1665175663,C;S;V;F,13.7,0x00c000,-38.0,0.00e-0
1665175664,C;S;V;F,,0x00c000,-37.8,0.00e-0
1665175665,C;S;V;F,13.9,0x00c000,-37.9,0.00e-0
1665175666,C;S;V;F,13.5,0x00c000,-38.0,0.00e-0
1665175667,C;S;V;F,13.5,0x00c000,,0.00e-0
1665175668,C;S;V;F,13.6,0x00c000,-37.6,0.00e-0
1665175669,C;S;V;F,14.1,0x00c000,-37.3,0.00e-0
1665175670,C;S;V;F,13.8,0x00c000,-37.6,0.00e-0
1665175671,C;S;V;F,14.1,0x00c000,-37.6,0.00e-0
1665175672,C;S;V;F,13.9,0x00c000,-37.7,0.00e-0
1665175673,C;S;V;F,13.7,0x00c000,-37.7,0.00e-0
1665175674,C;S;V;F,13.5,0x00c000,-38.0,
1665175675,,13.8,0x00c000,-37.9,0.00e-0
1665175676,C;S;V;F,13.5,0x00c000,-38.0,0.00e-0
1665175677,C;S;V;F,13.8,0x00c000,-38.0,0.00e-0
1665175678,C;S;V;F,13.7,0x00c000,-37.9,0.00e-0
1665175679,C;S;V;F,13.7,0x00c000,-37.9,0.00e-0
1665175680,C;S;V;F,,0x00c000,-37.9,0.00e-0
1665175681,C;S;V;F,13.6,0x00c000,-38.0,0.00e-0
1665175682,C;S;V;F,13.7,0x00c000,-38.0,0.00e-0
1665175683,C;S;V;F,13.6,0x00c000,,0.00e-0
1665175684,C;S;V;F,13.7,0x00c000,-37.9,0.00e-0
1665175685,C;S;V;F,13.6,0x00c000,-37.9,0.00e-0
1665175686,C;S;V;F,13.8,0x00c000,-37.7,0.00e-0
1665175688,,13.8,0x00c000,-37.8,
1665175689,C;S;V;F,13.6,0x00c000,-38.0,0.00e-0
1665175690,C;S;V;F,,0x00c000,-37.9,0.00e-0
1665175691,C;S;V;F,13.5,0x00c000,,0.00e-0
1665175692,C;S;V;F,13.7,0x00c000,-37.7,0.00e-0
1665175693,C;S;V;F,13.8,0x00c000,-37.7,0.00e-0
1665175694,C;S;V;F,14.0,0x00c000,-37.6,0.00e-0
1665175695,C;S;V;F,13.7,0x00c000,-37.9,0.00e-0
1665175696,C;S;V;F,13.6,0x00c000,-38.0,0.00e-0
1665175697,C;S;V;F,13.4,0x00c000,-38.0,0.00e-0
1665175698,C;S;V;F,13.8,0x00c000,-37.7,0.00e-0
1665175699,C;S;V;F,13.5,0x00c000,-37.9,0.00e-0
1665175700,C;S;V;F,13.1,0x00c000,-38.4,0.00e-0
1665175701,C;S;V;F,13.1,0x00c000,-38.3,0.00e-0
1665175702,C;S;V;F,13.2,0x00c000,-38.3,0.00e-0
1665175703,C;S;V;F,13.4,0x00c000,-38.4,0.00e-0
1665175704,C;S;V;F,13.5,0x00c000,-38.0,
1665175705,,13.2,0x00c000,-38.1,0.00e-0
1665175706,C;S;V;F,13.5,0x00c000,-38.0,0.00e-0
1665175707,C;S;V;F,13.4,0x00c000,-37.9,0.00e-0
1665175708,C;S;V;F,13.8,0x00c000,-37.6,0.00e-0
1665175709,C;S;V;F,,0x00c000,-37.7,0.00e-0
1665175710,C;S;V;F,13.7,0x00c000,-37.6,0.00e-0
1665175711,C;S;V;F,13.8,0x00c000,,0.00e-0
1665175712,C;S;V;F,13.8,0x00c000,-37.5,0.00e-0
1665175713,C;S;V;F,14.0,0x00c000,-37.5,0.00e-0
1665175714,C;S;V;F,13.9,0x00c000,-37.6,0.00e-0
1665175715,C;S;V;F,14.0,0x00c000,-37.4,0.00e-0
1665175716,C;S;V;F,14.2,0x00c000,-37.2,0.00e-0
1665175717,C;S;V;F,14.0,0x00c000,-37.5,0.00e-0
1665175718,C;S;V;F,14.3,0x00c000,-37.3,0.00e-0
1665175719,C;S;V;F,14.1,0x00c000,-37.1,0.00e-0
1665175720,C;S;V;F,14.3,0x00c000,-37.1,0.00e-0
1665175721,C;S;V;F,14.3,0x00c000,-37.1,0.00e-0
1665175722,C;S;V;F,14.6,0x00c000,-37.1,
1665175723,,14.2,0x00c000,-37.2,0.00e-0
1665175724,C;S;V;F,14.4,0x00c000,-37.0,0.00e-0
1665175725,C;S;V;F,14.2,0x00c000,-37.1,0.00e-0
1665175726,C;S;V;F,,0x00c000,-37.4,0.00e-0
1665175727,C;S;V;F,14.0,0x00c000,-37.6,0.00e-0
1665175728,C;S;V;F,13.8,0x00c000,,0.00e-0
1665175729,C;S;V;F,13.8,0x00c000,-37.6,0.00e-0
1665175730,C;S;V;F,13.7,0x00c000,-37.7,0.00e-0
1665175731,C;S;V;F,13.7,0x00c000,-37.6,0.00e-0
1665175732,C;S;V;F,13.7,0x00c000,-37.7,0.00e-0
1665175733,C;S;V;F,13.7,0x00c000,-37.8,0.00e-0
1665175734,C;S;V;F,14.0,0x00c000,-37.6,0.00e-0
1665175735,C;S;V;F,13.8,0x00c000,-37.6,0.00e-0
1665175736,C;S;V;F,13.5,0x00c000,-38.0,1.51e-7
1665175737,C;S;V;F,13.9,0x00c000,-37.4,1.51e-7
1665175738,,13.8,0x00c000,-37.3,
1665175739,C;S;V;F,14.0,0x00c000,-37.5,0.00e-0
1665175740,C;S;V;F,13.9,0x00c000,-37.4,0.00e-0
1665175741,C;S;V;F,,0x00c000,-37.5,0.00e-0
1665175742,C;S;V;F,13.8,0x00c000,-37.6,0.00e-0
1665175743,C;S;V;F,13.8,0x00c000,-37.4,0.00e-0
1665175744,C;S;V;F,13.7,0x00c000,,0.00e-0
1665175745,C;S;V;F,13.9,0x00c000,-37.6,0.00e-0
1665175746,C;S;V;F,13.9,0x00c000,-37.6,0.00e-0
1665175747,C;S;V;F,13.9,0x00c000,-37.4,0.00e-0
1665175748,C;S;V;F,13.7,0x00c000,-37.6,0.00e-0
1665175749,C;S;V;F,13.8,0x00c000,-37.4,0.00e-0
1665175751,C;S;V;F,13.7,0x00c000,-37.6,
1665175752,,13.7,0x00c000,-37.8,0.00e-0
1665175753,C;S;V;F,13.2,0x00c000,-38.2,0.00e-0
1665175754,C;S;V;F,13.0,0x00c000,-38.2,0.00e-0
1665175755,C;S;V;F,,0x00c000,-38.3,0.00e-0
1665175756,C;S;V;F,13.0,0x00c000,-38.5,3.03e-7
1665175757,C;S;V;F,12.7,0x00c000,,9.09e-7
1665175758,C;S;V;F,12.5,0x00c000,-38.8,1.36e-6
1665175759,C;S;V;F,12.4,0x00c000,-39.0,1.51e-6
1665175760,C;S;V;F,12.2,0x00c000,-38.8,1.81e-6
1665175761,,0.0,0x00c000,-44.6,
1665175762,-;-;-;-,,0xc0504d,,-1e-7
